Weather in Buranny

Russia / Chelyabinsk Oblast     53°23′40″N   59°19′57″E
temp.,
°C
wind,
m/s
gust,
m/s
humid.,
%
clouds,
%
prec.,
mm/h
press.,
hPa
HPBL,
m
13 april, tue
tue1323:00+4nne239865 0.0 103965
02:00+5ne2297100 0.0 103923
05:00+5nne2396100 0.0 104047
08:00+5ene2595100 0.0 1041138
11:00+9e33752 0.0 1041557
14:00+12ese33646 0.0 1039884
17:00+13se23592 0.0 1038948
20:00+10sse22750 0.0 103815
14 april, wed
wed1423:00+7sse22881 0.0 103817
02:00+5s22905 0.0 103719
05:00+3ssw22915 0.0 103712
08:00+5ssw12845 0.0 103677
11:00+9s22575 0.0 1035339
14:00+13s22405 0.0 1033613
17:00+14sse22375 0.0 1031656
20:00+11s22535 0.0 103010
15 april, thu
thu1523:00+8ssw22655 0.0 103011
02:00+6ssw227010 0.0 102910
05:00+4sw22715 0.0 102910
08:00+6sw23675 0.0 102881
11:00+11sw334462 0.0 1026314
14:00+15ssw3334100 0.0 1024589
17:00+16ssw3333100 0.0 1022614
20:00+12s2249100 0.0 102119
16 april, fri
fri1623:00+9sw2256100 0.0 102013
02:00+8sw2259100 0.0 101910
05:00+7nnw1161100 0.0 101810
08:00+7nne2368100 0.0 101764
11:00+12ene345398 0.0 1016463
14:00+15e2242100 0.0 1014916
17:00+16ene1139100 0.0 10131292
20:00+13sse2253100 0.0 101211
17 april, sat
sat1723:00+9ne467358 0.0 1013122
02:00+6ne5787100 0.0 1014496
05:00+5ne4590100 0.1 1014382
08:00+4ne4493100 0.1 1014486
11:00+2ne4798100 0.8 1014275
14:00+2nne3695100 0.4 1015331
17:00+3n3482100 0.6 1014721
20:00+1nnw5995100 1.8 1015542